Regional Weather Roundup
Issued by NWS

Home | Current Version | Previous Version | Text Only | Print | Product List | Glossary Off
Versions: 1 2 3 4 5 6 7 8 9 10 11 12 13 14 15 16 17 18 19 20 21 22 23 24 25 26 27 28 29 30 31 32 33 34 35 36 37 38 39 40 41 42 43 44 45 46 47 48 49 50

589
ASUS45 KCYS 120410
RWRWY

WYOMING REGIONAL WEATHER ROUNDUP
NATIONAL WEATHER SERVICE CHEYENNE WY
900 PM MST THU FEB 11 2016

NOTE:  "FAIR" INDICATES FEW OR NO CLOUDS BELOW 12,000 FEET
WITH NO SIGNIFICANT WEATHER AND/OR OBSTRUCTIONS TO VISIBILITY.

WYZ001-120500-
YELLOWSTONE NATIONAL PARK

CITY           SKY/WX    TMP DP  RH WIND       PRES   REMARKS
LK YELLOWSTONE   N/A     33  21  61 VRB5      30.37R WCI  29
W YELLOWSTONE  NOT AVBL

$$
WYZ002>013-054>058-071-098>099-120500-
NORTHERN WYOMING

CITY           SKY/WX    TMP DP  RH WIND       PRES   REMARKS
JACKSON        NOT AVBL
CODY           CLOUDY    45  18  33 CALM      30.24R
GREYBULL       CLOUDY    43  21  41 W5        30.21R
WORLAND        MOCLDY    35  27  72 CALM      30.22R
SHERIDAN       FAIR      37  26  64 W9        30.23R WCI  30
BUFFALO        FAIR      34  24  67 W6        30.23S WCI  29
GILLETTE       FAIR      32  25  75 W6        30.21R WCI  26
HULETT         FAIR      34  32  93 NE3       30.21S
NEWCASTLE      FAIR      32  25  74 NW10      30.20R WCI  24

$$
WYZ014>020-022>026-101>103-120500-
CENTRAL WYOMING

CITY           SKY/WX    TMP DP  RH WIND       PRES   REMARKS
BIG PINEY      FAIR      31  23  72 CALM      30.37R
PINEDALE         N/A     27  23  86 NW6       30.37S WCI  20
DUBOIS         MOCLDY    37  21  52 NW10      30.28F WCI  30
LANDER         FAIR      39  25  57 NE3       30.24S
RIVERTON       FAIR      42  23  46 S3        30.26S
CASPER         FAIR      36  27  69 W10       30.24S WCI  28
DOUGLAS        FAIR      31  26  82 NW7       30.25S WCI  24

$$
WYZ021-027>030-104>119-120500-
SOUTHERN WYOMING

CITY           SKY/WX    TMP DP  RH WIND       PRES   REMARKS
EVANSTON       FAIR      37  18  46 S6        30.39S WCI  32
KEMMERER       FAIR      32  19  59 NW10      30.39S WCI  24
FORT BRIDGER   CLEAR     41  19  42 W20       30.40S
ROCK SPRINGS   FAIR      35  21  56 W12       30.37R WCI  27
DIXON          FAIR      26  18  72 SE3       30.41R
RAWLINS        FAIR      35  21  56 W20       30.30F WCI  24
SARATOGA       FAIR      32  21  64 SE3       30.35S
LARAMIE        FAIR      31  22  69 CALM      30.28S
CHEYENNE       FAIR      39  24  55 NW6       30.26S WCI  35
TORRINGTON     FAIR      34  26  72 SW5       30.22S WCI  30
PINE BLUFFS    FAIR      34  27  75 S3        30.26R

$$




USA.gov is the U.S. government's official web portal to all federal, state and local government web resources and services.